Location: Ahausen
(50.4985°N, 8.2722°E)
Time: 10:34:50
(UTC+00:00)

YUBILEINY - Pass Details

Date: 07 July 2022
Orbit: 1478 x 1509 km, 82.5° (Epoch: 07 August)

Event Time Altitude Azimuth Distance (km) Brightness Sun altitude
Rises 00:52:04 0° 349° (NNW) 4,654 ? -14.8°
Reaches altitude 10° 00:55:57 10° 4° (N) 3,665 ? -14.6°
Maximum altitude 01:02:30 22° 53° (NE) 2,808 ? -14.2°
Drops below altitude 10° 01:08:57 10° 101° (E) 3,636 ? -13.8°
Sets 01:12:45 0° 116° (ESE) 4,607 ? -13.6°
